Yreka, CA

8:42 AM PST on February 13, 2016 (GMT -0800)
Siskiyou County

Weather History for KSIY - February, 2014

Change the Weather History Date:

Thursday, February 6, 2014

  Actual Average Record
Temperature  
Mean Temperature 37 °F 37 °F  
Max Temperature 43 °F 48 °F 69 °F (1963)
Min Temperature 31 °F 27 °F -2 °F (1989)
Degree Days  
Heating Degree Days 28 28  
Month to date heating degree days 198 169  
Since 1 July heating degree days 3603 3321  
Cooling Degree Days 0 0  
Month to date cooling degree days 0 0  
Year to date cooling degree days 0 0  
Moisture  
Dew Point 30 °F    
Average Humidity 75    
Maximum Humidity 89    
Minimum Humidity 63    
Precipitation  
Precipitation 0.05 in 0.07 in 1.54 in (2015)
Month to date precipitation 0.05 0.37  
Year to date precipitation 0.24 2.57  
Sea Level Pressure  
Sea Level Pressure 29.86 in    
Wind  
Wind Speed 8 mph (South)    
Max Wind Speed 26 mph    
Max Gust Speed 31 mph    
Visibility 10 miles    
Events Rain , Snow    
T = Trace of Precipitation, MM = Missing Value Source: NWS Daily Summary

Daily Weather History Graph

Daily Weather History Graph

Search for Another Location

Airport or City:

Trip Planner

Search our weather history database for the weather conditions in past years. The results will help you decide how hot, cold, wet, or windy it might be!

Date:

Astronomy

Feb. 06, 2014 Rise Set
Actual Time 7:16 AM PST 5:31 PM PST
Civil Twilight 6:47 AM PST 6:00 PM PST
Nautical Twilight 6:14 AM PST 6:34 PM PST
Astronomical Twilight 5:42 AM PST 7:06 PM PST
Moon 11:06 AM PST (2/6) 12:38 AM PST (2/6)
Length of Visible Light 11h 13m
Length of Day
10h 15m
Waxing Crescent, 50% of the Moon is Illuminated
Feb 6
Waxing Crescent
Feb 14
Full
Feb 22
Last Quarter
Mar 1
New
Mar 8
First Quarter

Hourly Weather History & Observations

Time (PST) Temp. Windchill Dew Point Humidity Pressure Visibility Wind Dir Wind Speed Gust Speed Precip Events Conditions
12:53 AM 36.0 °F - 25.0 °F 64% 30.00 in 10.0 mi Calm Calm - N/A   Overcast
1:53 AM 35.1 °F - 25.0 °F 67% 29.98 in 10.0 mi Calm Calm - N/A   Overcast
2:53 AM 33.1 °F 30.0 °F 23.0 °F 66% 29.97 in 10.0 mi ENE 3.5 mph - N/A   Overcast
3:53 AM 30.9 °F 27.5 °F 19.9 °F 64% 29.96 in 10.0 mi ENE 3.5 mph - N/A   Overcast
4:53 AM 33.1 °F - 23.0 °F 66% 29.94 in 10.0 mi Calm Calm - N/A   Overcast
5:53 AM 36.0 °F 31.1 °F 24.1 °F 62% 29.94 in 10.0 mi NNE 5.8 mph - N/A   Overcast
6:53 AM 34.0 °F 28.8 °F 25.0 °F 70% 29.93 in 10.0 mi NNE 5.8 mph - N/A   Overcast
7:53 AM 32.0 °F 25.6 °F 28.9 °F 88% 29.94 in 2.0 mi NNE 6.9 mph - 0.00 in Snow Light Snow
8:02 AM 33.1 °F 25.5 °F 30.0 °F 89% 29.87 in 5.0 mi NNE 9.2 mph - 0.00 in Snow Light Snow
8:53 AM 33.1 °F 26.9 °F 30.9 °F 92% 29.94 in 9.0 mi North 6.9 mph - 0.00 in   Overcast
9:53 AM 36.0 °F 28.0 °F 32.0 °F 86% 29.93 in 10.0 mi NNE 11.5 mph - N/A   Overcast
10:53 AM 39.0 °F 34.8 °F 30.9 °F 73% 29.91 in 10.0 mi North 5.8 mph - N/A   Overcast
11:41 AM 39.0 °F 34.8 °F 32.0 °F 76% 29.84 in 10.0 mi Variable 5.8 mph - N/A   Overcast
11:53 AM 39.0 °F 29.0 °F 30.9 °F 73% 29.90 in 10.0 mi South 20.7 mph - 0.00 in Rain Light Rain
12:53 PM 37.0 °F 28.9 °F 34.0 °F 89% 29.87 in 8.0 mi South 12.7 mph - 0.04 in Rain Light Rain
1:00 PM 37.9 °F 31.5 °F 35.1 °F 89% 29.80 in 10.0 mi South 9.2 mph - 0.00 in Rain Light Rain
1:10 PM 37.9 °F 31.5 °F 34.0 °F 86% 29.79 in 10.0 mi South 9.2 mph - 0.00 in   Overcast
1:28 PM 39.0 °F 33.4 °F 34.0 °F 82% 29.77 in 10.0 mi SW 8.1 mph - 0.00 in   Overcast
1:53 PM 42.1 °F 38.4 °F 36.0 °F 79% 29.81 in 10.0 mi WSW 5.8 mph - 0.00 in   Overcast
2:53 PM 41.0 °F 34.7 °F 36.0 °F 82% 29.82 in 10.0 mi WSW 10.4 mph - 0.01 in Rain Light Rain
3:22 PM 43.0 °F 36.4 °F 34.0 °F 71% 29.75 in 10.0 mi South 12.7 mph - 0.00 in   Overcast
3:48 PM 42.8 °F 35.8 °F 32.0 °F 66% 29.75 in 10.0 mi South 13.8 mph - 0.00 in Rain Light Rain
3:53 PM 43.0 °F 36.0 °F 32.0 °F 65% 29.81 in 10.0 mi SSW 13.8 mph - 0.00 in   Overcast
4:16 PM 43.0 °F 36.8 °F 32.0 °F 65% 29.74 in 10.0 mi South 11.5 mph - N/A   Overcast
4:35 PM 43.0 °F 36.8 °F 32.0 °F 65% 29.74 in 10.0 mi South 11.5 mph - N/A   Overcast
4:43 PM 42.1 °F 34.5 °F 33.1 °F 70% 29.74 in 10.0 mi South 15.0 mph - N/A   Overcast
4:53 PM 41.0 °F 32.8 °F 32.0 °F 70% 29.81 in 10.0 mi South 16.1 mph - N/A   Overcast
5:53 PM 39.0 °F 31.4 °F 30.9 °F 73% 29.81 in 10.0 mi South 12.7 mph - 0.00 in   Overcast
6:53 PM 39.0 °F 32.8 °F 30.9 °F 73% 29.82 in 10.0 mi SSW 9.2 mph - 0.00 in Rain Light Rain
7:53 PM 37.9 °F 31.5 °F 30.9 °F 76% 29.83 in 10.0 mi SSW 9.2 mph - 0.00 in   Mostly Cloudy
8:53 PM 37.0 °F 29.8 °F 30.9 °F 79% 29.85 in 10.0 mi South 10.4 mph - 0.00 in Rain Light Rain
9:53 PM 37.0 °F 28.9 °F 30.0 °F 76% 29.84 in 10.0 mi SSE 12.7 mph 26.5 mph 0.00 in   Scattered Clouds
10:53 PM 37.0 °F 31.0 °F 30.9 °F 79% 29.85 in 10.0 mi South 8.1 mph - N/A   Overcast
11:53 PM 36.0 °F 32.1 °F 30.0 °F 79% 29.86 in 10.0 mi Variable 4.6 mph - N/A   Scattered Clouds